ARIANE 44LP DEB, 25538

Orbit data source: Space-Track

ARIANE 44LP DEB, 25538 is space debris in HEO originally from a launch on Sun, 11 Dec 1988 UTC launched from the French Guiana (FRGUI). Debris objects in space refer to the collection of defunct objects orbiting the Earth. Examples of debris include non-operational satellites, rocket bodies, and fragments generated from explosions, collisions, or faulty payload assembly.

Loading next visibility...
Identifier
25538, 1988-109E
Orbit
HEO
Country
Flag of FRFR
Related business
Manufacturer
Unknown
Mission
Spacecraft
Bus & Motor
Unknown
Mass
Unknown
Launch date (UTC)
1988-12-11 (37 years ago)
Launch vehicle
Unknown
Launch site
French Guiana (FRGUI)
Object type
Payload
Rocket body
Debris
Shape & HBR
Unknown shape, 1.1 m
Radar Cross Section
Medium (>0.1 m² and <1 m²)

Expand to show TLE details & history
Last TLE update: 13 hours ago

TLE from 13 hours ago
0 ARIANE 44LP DEB
1 25538U 88109E   26035.49767017  .00000495  00000-0  74051-2 0  9993
2 25538   6.4727 172.7049 7183362 188.4912 188.0508  2.24094787223149
Epoch: 2026-02-04T11:56Z
TLE epoch observation values (Epoch: 2026-02-04T11:56:38.702Z)
Latitude
1.1688°
Longitude
-130.8458°
Altitude
35,941.65 km
Speed
1.637 km/s
True Right ascension
12h 11m 54s
True Declination
1° 10' 03"
Sunlit
Object was in daylight at epoch
Visualization orbit readout
Latitude
Unknown
Longitude
Unknown
Altitude
Unknown
Speed
Unknown
Apparent Right ascension
Unknown
Apparent Declination
Unknown
Sunlit
N/A
Visualization observer readout
Local Sidereal Time
03:04:09
Azimuth
Unknown
Elevation
Unknown
Doppler factor
Unknown
Orbital elements
Apogee altitude
36,016.8 km
Perigee altitude
571.096 km
Semi-major axis
24,672.085 km
Eccentricity
0.71834
Inclination
6.4727°
RAAN
172.7049°
Arg. of periapsis
188.4912°
True anomaly
181.89866°
Mean anomaly
188.0508°
Eccentric anomaly
184.68741°
Mean motion
0.56006 °/min
Orbital period
642.79 mins
BSTAR
0.0074051
Loading maneuver chart data...
Computing Atmospheric mass density...
Loading historical data...
Loading historical data...
Loading historical data...
Loading historical data...
Loading historical data...
Loading historical data...
Loading historical data...

Documentation

Showing up to 5 results
|